Wind_Speed
14 14 13 13 12 12 12 12 12 10 10 9 9 9 11 11 11 12 13 14 15 15 14 15 15 16 16 16 17 17 17 17
14 13 12 12 11 11 12 13 13 12 13 13 12 12 10 10 11 12 13 14 15 15 15 15 15 15 16 16 16 17 18 17
12 11 10 11 10 11 12 12 12 14 13 13 12 11 10 11 13 13 14 15 15 16 15 16 16 17 16 16 16 18 18 16
10 9 9 9 10 10 10 10 11 12 12 13 14 12 11 14 15 16 17 16 16 16 16 17 18 17 18 18 17 18 19 19
10 9 9 9 8 7 7 9 10 10 13 14 14 14 15 15 16 18 17 17 17 18 18 18 18 19 19 19 18 19 19 20
9 9 9 8 6 6 7 8 10 10 12 14 15 15 15 16 18 19 18 18 18 18 19 20 20 20 19 19 20 20 21 21
10 9 7 7 6 6 6 8 9 10 13 14 15 15 16 18 21 21 21 20 19 19 21 20 20 20 20 21 21 21 20 20
10 8 7 7 5 5 6 9 9 12 14 15 15 15 15 18 21 21 22 22 21 22 22 21 20 20 20 20 19 19 17 18
9 8 7 6 4 4 7 9 11 12 13 15 15 15 16 17 20 20 19 21 22 23 21 20 20 20 20 20 20 18 18 19
9 8 6 4 3 4 7 9 11 12 14 15 14 14 16 18 19 19 20 21 23 22 20 20 21 20 20 20 18 19 19 18
9 7 5 4 2 3 5 8 10 12 13 14 14 14 16 18 19 21 21 22 23 21 21 21 21 21 21 20 19 20 20 20
9 6 4 4 2 4 6 9 11 13 13 14 15 15 16 19 20 21 22 23 23 21 21 22 22 22 22 20 21 22 24 22
9 6 5 3 3 5 7 9 11 12 13 14 15 16 17 19 21 22 23 23 22 21 21 21 22 22 21 22 26 26 26 23
9 7 3 3 3 5 7 10 12 12 13 15 16 18 18 21 22 23 23 23 22 21 21 21 22 22 21 26 28 28 26 23
7 5 4 4 4 5 8 10 11 13 14 15 17 18 19 21 22 22 23 22 22 21 21 22 22 22 22 29 32 32 26 21
7 5 5 5 4 5 8 9 12 13 15 16 18 18 19 20 21 22 23 22 21 21 22 23 23 22 25 32 35 33 24 23
7 6 6 5 4 6 8 10 12 14 15 16 17 18 19 20 21 22 23 22 22 22 23 24 25 23 28 33 36 30 25 22
8 7 6 5 5 6 8 10 12 13 15 16 18 19 20 21 21 22 23 23 23 23 24 25 26 25 30 36 39 29 25 25
10 9 8 5 5 6 7 9 11 13 15 17 18 19 20 21 21 22 23 22 23 24 25 26 27 27 32 39 42 31 27 28
Wind_Direction
100 94 89 85 81 72 62 53 44 32 19 3 358 355 357 356 354 352 347 344 340 336 330 328 325 324 325 327 323 322 316 318
102 94 90 86 78 69 59 47 33 24 15 6 0 355 353 352 351 348 347 342 341 338 332 329 328 323 322 323 323 322 320 320
103 95 91 85 80 67 54 42 30 24 16 8 357 348 347 347 347 345 345 342 340 336 333 328 326 322 319 319 319 317 317 323
113 105 98 92 77 63 52 38 28 23 12 5 0 358 354 353 350 347 343 340 338 336 331 326 321 318 315 314 313 311 312 311
124 119 105 92 82 71 50 34 25 20 15 9 4 0 354 351 345 342 339 339 336 335 333 329 323 318 312 311 310 306 302 304
136 118 103 97 85 67 42 27 21 16 13 10 4 1 354 348 348 344 343 339 337 335 333 329 325 320 316 312 310 307 303 298
142 114 111 96 70 59 33 17 16 14 10 8 6 359 354 352 351 348 345 341 339 338 334 331 328 325 321 315 311 305 303 299
143 132 105 87 69 60 23 14 16 11 10 6 3 360 357 354 351 348 344 343 342 339 336 334 330 327 323 319 314 308 307 306
138 117 103 105 83 50 18 16 14 10 6 2 2 1 358 354 351 348 346 344 340 336 335 332 330 326 324 321 312 308 309 305
140 118 115 91 81 45 23 14 11 6 2 0 359 358 356 353 350 349 346 342 339 336 334 332 332 330 328 325 321 315 314 316
140 123 124 108 98 47 30 15 8 2 359 359 355 353 352 350 348 347 343 340 339 337 335 334 334 333 333 331 327 328 318 312
142 142 141 135 87 32 23 11 4 359 357 355 353 349 348 348 346 344 342 339 340 338 335 335 336 336 338 335 333 323 316 313
138 138 134 114 48 26 21 10 1 358 355 353 354 349 346 346 344 343 342 341 340 338 338 339 340 341 341 338 333 327 321 316
150 143 125 81 62 27 15 6 0 357 354 352 354 351 348 346 344 343 343 341 341 342 343 343 343 343 342 342 335 332 325 319
144 124 108 81 58 28 12 7 3 359 355 353 354 351 348 346 345 344 344 344 344 347 346 346 346 346 347 344 338 333 324 318
138 129 102 94 54 28 13 15 6 359 357 357 355 351 347 348 348 346 346 347 350 348 349 350 351 349 350 342 340 334 327 325
131 123 110 89 56 25 24 13 6 1 0 358 356 353 352 352 351 350 351 353 353 352 353 353 351 350 352 345 343 336 335 330
137 119 107 93 55 28 21 9 3 1 2 359 358 356 356 355 353 353 356 356 354 355 354 354 353 351 353 350 348 344 339 333
129 120 114 93 53 35 12 7 6 3 3 0 360 358 358 357 356 358 359 358 356 356 354 354 355 354 357 354 351 349 344 341
Height
880 880 881 881 882 882 881 881 880 878 877 875 872 871 869 867 865 864 861 858 855 852 848 845 842 838 835 832 829 825 821 816
882 884 884 884 884 884 883 883 882 880 877 875 873 871 869 868 866 864 861 858 855 851 848 844 841 837 835 831 827 823 818 814
884 885 885 885 885 885 885 885 884 882 880 878 876 873 870 868 866 863 861 858 855 851 848 843 840 836 832 829 826 822 817 814
885 886 886 885 886 887 887 887 886 884 882 879 876 872 869 868 865 862 860 857 854 850 846 842 839 835 830 827 823 820 815 812
885 886 884 886 888 888 888 888 887 886 884 880 878 874 871 869 866 863 859 855 852 848 844 841 837 832 828 824 820 817 813 808
885 883 886 887 888 889 889 889 888 887 885 882 879 876 873 869 866 862 858 854 850 846 843 839 835 830 826 822 818 814 810 806
883 886 887 888 889 890 890 889 889 888 885 883 880 877 874 870 866 861 857 852 848 845 841 837 833 828 824 819 815 811 807 803
881 884 886 890 891 891 891 890 889 888 886 883 881 877 874 870 866 861 856 852 847 843 840 835 830 826 822 817 812 807 804 801
880 884 889 891 892 892 891 890 889 888 886 884 881 878 874 871 867 863 858 853 848 843 838 834 829 825 820 815 809 805 801 798
881 887 890 891 892 892 892 891 890 889 887 884 881 878 875 872 868 863 858 853 848 842 837 832 827 822 817 812 807 802 798 795
882 888 890 892 892 892 893 892 891 889 887 885 882 879 876 872 867 863 858 853 847 841 836 830 825 820 815 811 805 801 797 793
882 888 890 891 892 893 893 893 891 890 888 885 882 879 875 871 867 862 857 851 845 840 834 829 824 819 814 809 803 799 793 787
884 888 890 892 893 894 894 894 893 891 888 885 882 879 875 871 866 861 856 850 844 838 833 828 823 818 812 806 802 796 789 782
885 888 891 892 895 895 895 895 893 891 888 885 882 878 875 870 866 860 855 849 843 838 833 827 822 817 811 806 799 792 786 780
883 888 891 893 896 896 896 895 894 891 888 885 882 879 875 870 865 860 854 848 843 837 832 827 821 816 811 806 797 789 781 775
885 888 892 895 897 897 897 896 894 892 889 886 883 879 875 870 865 860 854 848 843 837 832 826 821 815 811 804 794 785 777 772
887 891 894 897 898 898 898 896 895 892 890 887 884 880 875 870 865 859 853 848 843 837 831 826 820 814 810 803 793 782 775 768
888 893 897 899 900 900 899 897 896 894 891 888 884 880 875 870 865 859 854 849 843 837 832 826 820 814 808 801 791 780 772 765
891 895 899 900 901 901 900 898 897 894 892 889 885 881 876 871 866 860 856 850 844 838 832 826 820 814 807 799 788 779 771 764